7 * 24
多渠道服务支持
STARLINK-33875是美国于2025年5月2日发射的卫星,隶属于SpaceX星链(Starlink)项目。星链项目旨在构建全球卫星互联网星座,为全球范围提供高速低成本的宽带互联网服务,该卫星的入轨进一步扩充了星链星座的卫星规模,强化星座服务覆盖能力与网络稳定性。
美国
(US)
| 数据来源 | 国际轨道数据 |
| 星历时间: | 2026-09-09T07:08:56+0800 2天前 查看轨道信息 |
| 半长轴: | 6861.122km |
| 偏心率: | 0.0001468 |
| 轨道倾角: | 43.004° |
| 近地点辐角 | 266.565° |
| 升交点赤经 | 97.317° |
| 平近点角 | 93.503° |
| 近地点: | 481.977km |
| 远地点: | 483.993km |
| 周期: | 94.265分钟 |
| 每日圈数: | 15.276015 |